Weather in Donske

Ukraine / Donetsk Region     47°30′58″N   37°32′06″E
temp.,
°C
wind,
m/s
gust,
m/s
humid.,
%
clouds,
%
prec.,
mm/h
press.,
hPa
HPBL,
m
19 may, wed
wed1900:00+12s3897100 0.0 1007261
03:00+13se3598100 0.2 1006202
06:00+13se2291100 1.7 100665
09:00+14s5884100 3.3 1007582
12:00+17ssw81065100 0.5 10071551
15:00+17ssw9115943 1.1 10071678
18:00+14ssw8108197 0.9 1007858
21:00+13ssw81492100 2.1 1007764
20 may, thu
thu2000:00+12sw7149699 0.4 1007527
03:00+11wsw81187100 0.4 1009737
06:00+11sw61291100 0.1 1010560
09:00+14wsw7976100 0.1 1011976
12:00+19wsw7105215 0.1 10111809
15:00+21sw68456 0.1 10112034
18:00+20ssw56565 0.0 1012804
21:00+14sse22765 0.0 101219
21 may, fri
fri2100:00+12ese2268100 0.0 101316
03:00+12ene467489 0.0 101290
06:00+13ene6127674 0.0 1012263
09:00+18e71068100 0.0 1011559
12:00+18e5870100 0.1 1010505
15:00+22e6860100 0.1 1010695
18:00+22e57676 0.0 1010770
21:00+17ne4118823 0.0 1009199
22 may, sat
sat2200:00+16nne488845 0.0 1008139
03:00+14nne349224 0.0 100765
06:00+15nne36895 0.0 1007146
09:00+21ene5566100 0.0 1008417
12:00+25e4455100 0.0 1008771
15:00+24ene5763100 0.0 1007546
18:00+23ese487193 0.0 1007436
21:00+19sse3484100 0.0 100945
23 may, sun
sun2300:00+17se2294100 0.0 100931
03:00+17ssw4988100 0.0 1008251
06:00+17wsw3793100 0.0 1008199
09:00+20nnw2376100 0.0 1008238
12:00+26s4557100 0.0 10081047
15:00+28ssw565348 0.0 10071750
18:00+25wnw686434 0.6 1008680
21:00+19w511765 0.8 1011252